Location: Newark
(43.6583°N, 1.6617°E)
Time: 04:37:01
(UTC+00:00)

Transit 4A - Pass Details

Date: 28 August 2019
Orbit: 865 x 980 km, 66.8° (Epoch: 18 September)

Event Time Altitude Azimuth Distance (km) Brightness Sun altitude
Rises 15:14:37 0° 169° (SSE) 3,656 11.1 35.1°
Reaches altitude 10° 15:17:42 10° 155° (SSE) 2,720 10.4 34.5°
Maximum altitude 15:22:31 23° 106° (ESE) 1,946 9.4 33.7°
Drops below altitude 10° 15:27:21 10° 56° (ENE) 2,730 9.9 32.9°
Sets 15:30:25 0° 43° (NE) 3,673 10.6 32.4°
